QPF
0.02 0.04 0.08 0.10 0.08 0.06 0.06 0.06 0.08 0.07 0.04 0.03 0.03 0.03 0.03 0.04 0.05 0.05 0.06 0.06 0.05 0.07 0.14 0.21 0.22 0.23 0.21 0.15 0.11 0.12 0.11 0.10 0.09 0.09 0.07 0.08 0.09 0.09 0.06 0.06 0.06 0.07 0.10
0.02 0.03 0.08 0.11 0.09 0.07 0.08 0.10 0.08 0.05 0.03 0.03 0.04 0.03 0.03 0.03 0.05 0.06 0.06 0.07 0.06 0.06 0.07 0.10 0.16 0.22 0.19 0.19 0.14 0.11 0.12 0.12 0.12 0.10 0.08 0.08 0.10 0.11 0.10 0.07 0.06 0.06 0.11
0.02 0.03 0.04 0.09 0.11 0.11 0.13 0.12 0.07 0.06 0.03 0.03 0.03 0.04 0.03 0.03 0.03 0.03 0.06 0.07 0.06 0.05 0.05 0.05 0.10 0.15 0.15 0.18 0.13 0.09 0.10 0.13 0.12 0.09 0.06 0.06 0.08 0.08 0.07 0.05 0.05 0.05 0.08
0.02 0.02 0.05 0.11 0.13 0.11 0.09 0.08 0.07 0.08 0.05 0.04 0.03 0.03 0.04 0.03 0.03 0.03 0.05 0.06 0.06 0.05 0.05 0.04 0.06 0.07 0.08 0.12 0.11 0.08 0.07 0.09 0.11 0.08 0.05 0.05 0.04 0.05 0.04 0.04 0.05 0.04 0.05
0.02 0.01 0.03 0.07 0.08 0.07 0.04 0.05 0.05 0.06 0.03 0.03 0.02 0.02 0.02 0.03 0.03 0.04 0.06 0.05 0.05 0.05 0.04 0.03 0.03 0.03 0.05 0.06 0.06 0.07 0.05 0.06 0.05 0.04 0.03 0.03 0.02 0.04 0.05 0.06 0.06 0.05 0.04
0.02 0.01 0.02 0.04 0.04 0.04 0.02 0.02 0.03 0.04 0.03 0.02 0.02 0.02 0.02 0.02 0.03 0.04 0.06 0.05 0.05 0.04 0.03 0.02 0.02 0.03 0.04 0.04 0.04 0.06 0.05 0.04 0.02 0.02 0.01 0.03 0.03 0.05 0.07 0.07 0.06 0.05 0.04
0.03 0.01 0.02 0.04 0.03 0.02 0.02 0.03 0.03 0.03 0.02 0.02 0.02 0.02 0.01 0.01 0.01 0.03 0.03 0.03 0.03 0.03 0.04 0.03 0.03 0.04 0.04 0.05 0.05 0.06 0.04 0.03 0.03 0.02 0.01 0.01 0.03 0.06 0.06 0.07 0.07 0.06 0.05
0.03 0.03 0.03 0.04 0.04 0.04 0.03 0.03 0.02 0.02 0.02 0.02 0.02 0.02 0.01 0.01 0.01 0.01 0.02 0.02 0.02 0.04 0.08 0.05 0.04 0.04 0.04 0.04 0.05 0.05 0.04 0.03 0.03 0.02 0.03 0.04 0.06 0.07 0.08 0.08 0.08 0.08 0.08
0.03 0.04 0.04 0.03 0.02 0.03 0.03 0.03 0.03 0.03 0.02 0.02 0.02 0.02 0.01 0.02 0.01 0.01 0.02 0.02 0.03 0.06 0.10 0.07 0.05 0.05 0.05 0.05 0.04 0.05 0.04 0.02 0.03 0.03 0.06 0.08 0.11 0.10 0.07 0.06 0.06 0.07 0.08
0.02 0.02 0.02 0.01 0.01 0.01 0.01 0.02 0.03 0.03 0.04 0.04 0.04 0.03 0.02 0.02 0.02 0.02 0.02 0.03 0.04 0.06 0.11 0.10 0.08 0.10 0.09 0.07 0.06 0.04 0.02 0.02 0.02 0.02 0.04 0.08 0.12 0.09 0.06 0.05 0.05 0.06 0.07
0.01 0.01 0.01 0.01 0.01 0.01 0.01 0.01 0.02 0.02 0.03 0.04 0.04 0.04 0.03 0.01 0.01 0.01 0.02 0.04 0.03 0.06 0.12 0.15 0.15 0.13 0.10 0.08 0.06 0.04 0.02 0.01 0.02 0.01 0.03 0.07 0.09 0.08 0.06 0.06 0.05 0.05 0.04
0.01 0.01 0.01 0.01 0.01 0.01 0.01 0.01 0.01 0.01 0.01 0.01 0.01 0.02 0.01 0.00 0.00 0.00 0.01 0.02 0.03 0.04 0.06 0.10 0.11 0.08 0.07 0.05 0.04 0.03 0.02 0.01 0.01 0.01 0.03 0.07 0.09 0.08 0.07 0.06 0.05 0.05 0.04
0.02 0.01 0.01 0.01 0.02 0.01 0.01 0.01 0.02 0.02 0.01 0.01 0.01 0.01 0.00 0.00 0.00 0.00 0.00 0.00 0.01 0.01 0.02 0.03 0.04 0.04 0.03 0.03 0.03 0.02 0.02 0.02 0.02 0.02 0.04 0.07 0.11 0.09 0.08 0.07 0.05 0.05 0.05
0.02 0.02 0.01 0.01 0.01 0.01 0.02 0.02 0.02 0.02 0.02 0.01 0.00 0.00 0.00 0.00 0.00 0.00 0.00 0.00 0.00 0.00 0.01 0.01 0.02 0.02 0.03 0.02 0.02 0.02 0.02 0.02 0.01 0.02 0.06 0.09 0.11 0.11 0.09 0.08 0.06 0.05 0.05
0.02 0.02 0.02 0.01 0.01 0.02 0.02 0.03 0.03 0.03 0.02 0.02 0.01 0.00 0.00 0.00 0.00 0.00 0.00 0.00 0.01 0.01 0.01 0.01 0.03 0.04 0.03 0.03 0.02 0.02 0.02 0.02 0.01 0.01 0.06 0.12 0.11 0.09 0.09 0.09 0.08 0.07 0.06
0.02 0.02 0.02 0.01 0.02 0.02 0.02 0.03 0.05 0.04 0.03 0.02 0.01 0.00 0.00 0.00 0.00 0.00 0.00 0.00 0.01 0.01 0.00 0.01 0.01 0.02 0.02 0.02 0.03 0.03 0.02 0.02 0.01 0.01 0.02 0.06 0.11 0.12 0.09 0.08 0.08 0.08 0.06
0.01 0.01 0.02 0.02 0.02 0.02 0.02 0.04 0.04 0.04 0.03 0.03 0.03 0.01 0.00 0.00 0.01 0.01 0.01 0.01 0.01 0.00 0.00 0.00 0.01 0.01 0.02 0.02 0.04 0.03 0.02 0.02 0.02 0.01 0.02 0.03 0.05 0.08 0.08 0.08 0.08 0.09 0.08
0.00 0.01 0.01 0.01 0.02 0.02 0.02 0.04 0.06 0.05 0.05 0.04 0.04 0.03 0.02 0.01 0.01 0.01 0.01 0.00 0.00 0.01 0.01 0.01 0.01 0.01 0.01 0.03 0.04 0.02 0.01 0.01 0.02 0.01 0.01 0.01 0.02 0.02 0.03 0.05 0.05 0.06 0.07
0.01 0.01 0.01 0.01 0.01 0.02 0.02 0.03 0.05 0.05 0.04 0.05 0.06 0.06 0.04 0.02 0.01 0.01 0.01 0.01 0.01 0.01 0.01 0.02 0.01 0.01 0.02 0.03 0.04 0.03 0.02 0.01 0.01 0.01 0.01 0.01 0.01 0.02 0.03 0.03 0.02 0.03 0.04
0.01 0.01 0.01 0.01 0.01 0.01 0.02 0.03 0.05 0.04 0.04 0.04 0.05 0.07 0.06 0.03 0.02 0.02 0.02 0.02 0.02 0.02 0.02 0.03 0.03 0.02 0.03 0.03 0.03 0.03 0.02 0.02 0.02 0.02 0.01 0.01 0.02 0.03 0.03 0.03 0.02 0.02 0.03
0.01 0.01 0.01 0.01 0.01 0.01 0.02 0.02 0.05 0.06 0.04 0.03 0.05 0.06 0.06 0.04 0.02 0.02 0.03 0.02 0.03 0.03 0.03 0.03 0.03 0.02 0.02 0.02 0.02 0.02 0.02 0.02 0.02 0.01 0.01 0.01 0.01 0.03 0.05 0.04 0.04 0.02 0.02
0.01 0.01 0.01 0.02 0.02 0.01 0.02 0.02 0.04 0.08 0.08 0.06 0.06 0.07 0.06 0.05 0.04 0.03 0.02 0.01 0.02 0.02 0.02 0.02 0.03 0.03 0.03 0.02 0.01 0.02 0.01 0.01 0.01 0.00 0.00 0.00 0.00 0.01 0.03 0.04 0.04 0.02 0.01
0.01 0.01 0.01 0.02 0.02 0.02 0.02 0.02 0.04 0.07 0.10 0.08 0.05 0.04 0.05 0.05 0.04 0.03 0.02 0.02 0.01 0.01 0.01 0.02 0.03 0.03 0.02 0.02 0.02 0.02 0.01 0.01 0.01 0.00 0.00 0.00 0.00 0.01 0.02 0.03 0.03 0.03 0.01
0.01 0.01 0.01 0.01 0.01 0.01 0.02 0.02 0.03 0.06 0.08 0.08 0.06 0.06 0.05 0.04 0.04 0.04 0.03 0.03 0.02 0.01 0.01 0.01 0.01 0.02 0.02 0.02 0.02 0.03 0.02 0.02 0.01 0.01 0.01 0.01 0.01 0.01 0.02 0.03 0.03 0.02 0.02
0.01 0.01 0.01 0.01 0.01 0.02 0.02 0.03 0.03 0.04 0.06 0.08 0.07 0.08 0.07 0.06 0.05 0.05 0.05 0.05 0.03 0.01 0.00 0.01 0.01 0.01 0.02 0.02 0.03 0.03 0.04 0.04 0.02 0.01 0.01 0.01 0.01 0.01 0.02 0.04 0.03 0.02 0.02
0.01 0.02 0.02 0.02 0.02 0.01 0.02 0.03 0.03 0.04 0.05 0.08 0.08 0.08 0.08 0.06 0.04 0.04 0.05 0.04 0.03 0.02 0.01 0.01 0.01 0.01 0.02 0.02 0.02 0.02 0.02 0.03 0.03 0.01 0.01 0.01 0.01 0.01 0.02 0.04 0.04 0.03 0.02
MSLP
1013.28 1012.80 1012.44 1012.26 1012.24 1012.32 1012.44 1012.52 1012.53 1012.43 1012.25 1012.05 1011.88 1011.80 1011.84 1011.99 1012.22 1012.47 1012.68 1012.81 1012.83 1012.76 1012.64 1012.54 1012.50 1012.58 1012.79 1013.10 1013.49 1013.91 1014.30 1014.63 1014.88 1015.06 1015.19 1015.28 1015.38 1015.47 1015.58 1015.70 1015.81 1015.91 1015.99
1013.17 1012.77 1012.48 1012.36 1012.38 1012.49 1012.63 1012.72 1012.72 1012.63 1012.46 1012.28 1012.14 1012.10 1012.18 1012.37 1012.62 1012.89 1013.10 1013.21 1013.20 1013.10 1012.95 1012.81 1012.74 1012.78 1012.95 1013.24 1013.60 1014.00 1014.38 1014.71 1014.97 1015.17 1015.31 1015.42 1015.52 1015.61 1015.70 1015.80 1015.89 1015.98 1016.07
1013.02 1012.70 1012.49 1012.43 1012.50 1012.64 1012.80 1012.91 1012.93 1012.86 1012.72 1012.57 1012.47 1012.47 1012.57 1012.77 1013.02 1013.27 1013.45 1013.53 1013.49 1013.35 1013.18 1013.02 1012.93 1012.96 1013.11 1013.37 1013.71 1014.09 1014.46 1014.79 1015.06 1015.27 1015.43 1015.55 1015.64 1015.73 1015.81 1015.88 1015.96 1016.05 1016.14
1012.85 1012.60 1012.47 1012.47 1012.59 1012.78 1012.97 1013.10 1013.15 1013.12 1013.02 1012.91 1012.84 1012.86 1012.97 1013.16 1013.38 1013.59 1013.72 1013.75 1013.67 1013.52 1013.34 1013.18 1013.10 1013.13 1013.27 1013.52 1013.85 1014.21 1014.56 1014.88 1015.14 1015.36 1015.52 1015.65 1015.74 1015.82 1015.89 1015.95 1016.02 1016.10 1016.19
1012.68 1012.50 1012.43 1012.50 1012.67 1012.90 1013.12 1013.29 1013.38 1013.37 1013.31 1013.24 1013.20 1013.23 1013.34 1013.50 1013.67 1013.82 1013.90 1013.88 1013.78 1013.62 1013.45 1013.32 1013.27 1013.31 1013.47 1013.71 1014.02 1014.35 1014.67 1014.96 1015.22 1015.42 1015.58 1015.71 1015.80 1015.87 1015.94 1015.99 1016.05 1016.14 1016.25
1012.54 1012.41 1012.41 1012.53 1012.75 1013.01 1013.27 1013.46 1013.57 1013.60 1013.58 1013.54 1013.52 1013.56 1013.65 1013.77 1013.89 1013.98 1014.00 1013.95 1013.84 1013.69 1013.56 1013.47 1013.46 1013.54 1013.72 1013.96 1014.23 1014.52 1014.80 1015.06 1015.27 1015.46 1015.61 1015.73 1015.82 1015.90 1015.96 1016.02 1016.08 1016.17 1016.30
1012.44 1012.37 1012.42 1012.58 1012.84 1013.13 1013.40 1013.61 1013.74 1013.79 1013.79 1013.77 1013.77 1013.81 1013.88 1013.97 1014.04 1014.08 1014.06 1013.99 1013.88 1013.77 1013.68 1013.66 1013.70 1013.83 1014.02 1014.25 1014.50 1014.74 1014.96 1015.16 1015.33 1015.48 1015.61 1015.73 1015.82 1015.90 1015.98 1016.04 1016.12 1016.22 1016.35
1012.40 1012.38 1012.47 1012.68 1012.96 1013.26 1013.53 1013.74 1013.87 1013.93 1013.94 1013.94 1013.95 1013.99 1014.06 1014.12 1014.16 1014.17 1014.13 1014.05 1013.96 1013.89 1013.86 1013.89 1014.00 1014.16 1014.37 1014.59 1014.80 1014.99 1015.15 1015.28 1015.40 1015.52 1015.63 1015.74 1015.84 1015.93 1016.01 1016.09 1016.17 1016.28 1016.42
1012.41 1012.43 1012.57 1012.81 1013.10 1013.40 1013.66 1013.86 1013.97 1014.03 1014.05 1014.06 1014.09 1014.14 1014.20 1014.26 1014.28 1014.28 1014.23 1014.16 1014.09 1014.06 1014.08 1014.17 1014.32 1014.52 1014.74 1014.95 1015.13 1015.26 1015.37 1015.45 1015.52 1015.60 1015.69 1015.80 1015.90 1016.01 1016.10 1016.19 1016.27 1016.37 1016.50
1012.42 1012.50 1012.69 1012.96 1013.27 1013.56 1013.80 1013.97 1014.07 1014.11 1014.13 1014.16 1014.21 1014.27 1014.35 1014.41 1014.44 1014.43 1014.38 1014.32 1014.27 1014.27 1014.33 1014.46 1014.65 1014.88 1015.11 1015.31 1015.46 1015.57 1015.63 1015.67 1015.71 1015.77 1015.84 1015.94 1016.05 1016.16 1016.26 1016.34 1016.42 1016.50 1016.60
1012.40 1012.54 1012.78 1013.09 1013.41 1013.70 1013.92 1014.07 1014.16 1014.20 1014.22 1014.27 1014.34 1014.44 1014.54 1014.62 1014.66 1014.66 1014.61 1014.55 1014.51 1014.52 1014.60 1014.75 1014.96 1015.20 1015.44 1015.65 1015.80 1015.90 1015.94 1015.97 1015.99 1016.03 1016.10 1016.19 1016.30 1016.40 1016.49 1016.56 1016.62 1016.67 1016.72
1012.30 1012.50 1012.79 1013.14 1013.48 1013.78 1014.01 1014.15 1014.23 1014.28 1014.33 1014.40 1014.51 1014.64 1014.77 1014.87 1014.93 1014.94 1014.90 1014.83 1014.79 1014.79 1014.87 1015.02 1015.24 1015.49 1015.74 1015.96 1016.13 1016.24 1016.30 1016.32 1016.34 1016.38 1016.44 1016.53 1016.62 1016.71 1016.78 1016.82 1016.84 1016.84 1016.85
1012.06 1012.32 1012.67 1013.06 1013.44 1013.76 1014.01 1014.17 1014.28 1014.35 1014.43 1014.54 1014.69 1014.86 1015.03 1015.16 1015.24 1015.26 1015.22 1015.15 1015.09 1015.08 1015.14 1015.28 1015.49 1015.74 1016.01 1016.26 1016.45 1016.59 1016.68 1016.73 1016.77 1016.80 1016.85 1016.92 1016.99 1017.05 1017.08 1017.09 1017.06 1017.01 1016.96
1011.69 1011.99 1012.38 1012.81 1013.23 1013.60 1013.89 1014.11 1014.26 1014.39 1014.52 1014.68 1014.87 1015.08 1015.29 1015.45 1015.56 1015.59 1015.55 1015.48 1015.41 1015.38 1015.41 1015.53 1015.73 1015.99 1016.27 1016.55 1016.78 1016.96 1017.09 1017.16 1017.21 1017.25 1017.28 1017.31 1017.34 1017.36 1017.35 1017.31 1017.24 1017.15 1017.05
1011.18 1011.50 1011.91 1012.38 1012.85 1013.28 1013.65 1013.94 1014.17 1014.37 1014.56 1014.78 1015.01 1015.26 1015.50 1015.70 1015.83 1015.89 1015.87 1015.81 1015.73 1015.69 1015.71 1015.81 1016.00 1016.26 1016.56 1016.86 1017.12 1017.34 1017.50 1017.60 1017.65 1017.67 1017.67 1017.66 1017.64 1017.61 1017.55 1017.47 1017.36 1017.23 1017.09
1010.61 1010.90 1011.32 1011.81 1012.34 1012.84 1013.30 1013.68 1014.01 1014.29 1014.55 1014.82 1015.10 1015.38 1015.64 1015.87 1016.03 1016.12 1016.14 1016.11 1016.05 1016.02 1016.04 1016.14 1016.33 1016.58 1016.89 1017.20 1017.49 1017.73 1017.90 1018.00 1018.04 1018.03 1017.98 1017.92 1017.84 1017.75 1017.65 1017.53 1017.39 1017.24 1017.08
1010.05 1010.29 1010.68 1011.19 1011.76 1012.34 1012.89 1013.39 1013.81 1014.18 1014.51 1014.82 1015.12 1015.42 1015.70 1015.95 1016.14 1016.28 1016.35 1016.37 1016.36 1016.37 1016.42 1016.53 1016.72 1016.97 1017.27 1017.58 1017.87 1018.11 1018.27 1018.35 1018.36 1018.30 1018.20 1018.08 1017.94 1017.80 1017.66 1017.50 1017.34 1017.18 1017.02
1009.60 1009.76 1010.11 1010.62 1011.22 1011.88 1012.53 1013.12 1013.65 1014.09 1014.47 1014.81 1015.11 1015.41 1015.68 1015.94 1016.17 1016.35 1016.49 1016.58 1016.65 1016.72 1016.81 1016.95 1017.15 1017.41 1017.70 1017.99 1018.26 1018.47 1018.61 1018.65 1018.61 1018.50 1018.34 1018.15 1017.96 1017.77 1017.59 1017.41 1017.24 1017.06 1016.89
1009.35 1009.43 1009.72 1010.21 1010.84 1011.55 1012.28 1012.96 1013.57 1014.07 1014.48 1014.82 1015.11 1015.37 1015.63 1015.89 1016.13 1016.36 1016.57 1016.74 1016.90 1017.04 1017.20 1017.38 1017.59 1017.85 1018.12 1018.39 1018.63 1018.81 1018.90 1018.90 1018.81 1018.64 1018.42 1018.18 1017.94 1017.71 1017.50 1017.29 1017.10 1016.90 1016.71
1009.35 1009.34 1009.57 1010.04 1010.68 1011.43 1012.21 1012.96 1013.62 1014.16 1014.58 1014.90 1015.14 1015.36 1015.58 1015.81 1016.06 1016.33 1016.60 1016.85 1017.09 1017.32 1017.53 1017.76 1017.99 1018.25 1018.50 1018.74 1018.94 1019.08 1019.13 1019.09 1018.96 1018.75 1018.50 1018.22 1017.94 1017.67 1017.42 1017.18 1016.95 1016.72 1016.48
1009.61 1009.54 1009.71 1010.13 1010.76 1011.53 1012.34 1013.13 1013.81 1014.36 1014.77 1015.04 1015.24 1015.39 1015.56 1015.76 1016.00 1016.28 1016.60 1016.91 1017.22 1017.51 1017.79 1018.05 1018.30 1018.54 1018.78 1019.00 1019.17 1019.27 1019.30 1019.23 1019.08 1018.86 1018.58 1018.29 1017.98 1017.69 1017.40 1017.12 1016.83 1016.53 1016.22
1010.09 1009.97 1010.09 1010.47 1011.07 1011.82 1012.63 1013.42 1014.10 1014.64 1015.01 1015.24 1015.38 1015.48 1015.58 1015.74 1015.96 1016.24 1016.58 1016.94 1017.29 1017.62 1017.93 1018.21 1018.47 1018.71 1018.93 1019.12 1019.28 1019.37 1019.39 1019.33 1019.19 1018.98 1018.71 1018.42 1018.10 1017.78 1017.46 1017.12 1016.76 1016.37 1015.95
1010.73 1010.58 1010.65 1010.98 1011.52 1012.22 1012.99 1013.75 1014.40 1014.91 1015.25 1015.44 1015.53 1015.58 1015.64 1015.75 1015.95 1016.22 1016.55 1016.92 1017.29 1017.64 1017.95 1018.23 1018.49 1018.71 1018.92 1019.10 1019.26 1019.36 1019.40 1019.38 1019.27 1019.10 1018.87 1018.60 1018.30 1017.97 1017.61 1017.20 1016.75 1016.25 1015.71
1011.41 1011.25 1011.28 1011.54 1012.01 1012.63 1013.33 1014.02 1014.63 1015.10 1015.41 1015.58 1015.64 1015.66 1015.69 1015.78 1015.95 1016.20 1016.52 1016.88 1017.23 1017.57 1017.87 1018.13 1018.37 1018.58 1018.77 1018.96 1019.12 1019.25 1019.34 1019.36 1019.32 1019.22 1019.05 1018.82 1018.55 1018.22 1017.83 1017.37 1016.84 1016.23 1015.57
1012.05 1011.89 1011.88 1012.06 1012.43 1012.95 1013.56 1014.17 1014.71 1015.14 1015.42 1015.58 1015.64 1015.66 1015.69 1015.78 1015.94 1016.18 1016.48 1016.81 1017.14 1017.44 1017.71 1017.94 1018.15 1018.34 1018.52 1018.71 1018.89 1019.06 1019.20 1019.29 1019.33 1019.30 1019.21 1019.05 1018.81 1018.50 1018.11 1017.61 1017.02 1016.34 1015.58
1012.59 1012.43 1012.38 1012.48 1012.75 1013.15 1013.63 1014.15 1014.62 1015.00 1015.27 1015.42 1015.50 1015.55 1015.61 1015.71 1015.88 1016.12 1016.40 1016.70 1017.00 1017.27 1017.50 1017.70 1017.88 1018.05 1018.22 1018.41 1018.61 1018.82 1019.01 1019.17 1019.28 1019.34 1019.33 1019.24 1019.06 1018.80 1018.42 1017.93 1017.33 1016.61 1015.81
Thickness
5746 5749 5751 5752 5752 5752 5752 5753 5753 5753 5754 5754 5754 5755 5755 5756 5757 5757 5758 5759 5759 5760 5760 5760 5762 5762 5763 5763 5763 5762 5762 5763 5763 5763 5763 5763 5763 5763 5764 5764 5764 5764 5765
5747 5748 5749 5750 5750 5750 5750 5750 5750 5750 5751 5751 5751 5752 5752 5753 5754 5754 5755 5755 5756 5756 5757 5758 5758 5758 5760 5760 5760 5760 5760 5760 5759 5759 5760 5760 5760 5761 5761 5761 5761 5762 5762
5746 5747 5747 5747 5748 5748 5748 5747 5747 5747 5748 5748 5748 5749 5749 5750 5750 5751 5751 5752 5752 5753 5754 5754 5755 5755 5756 5756 5756 5757 5756 5756 5756 5756 5756 5756 5757 5758 5758 5758 5759 5759 5759
5744 5744 5745 5745 5745 5745 5745 5745 5744 5744 5745 5745 5745 5745 5745 5746 5747 5747 5748 5749 5749 5750 5750 5751 5751 5752 5752 5752 5752 5753 5753 5752 5752 5752 5752 5753 5754 5754 5755 5756 5756 5756 5757
5741 5742 5742 5743 5742 5742 5742 5742 5742 5741 5741 5741 5742 5742 5742 5743 5743 5744 5745 5745 5745 5746 5747 5747 5747 5748 5748 5748 5748 5748 5748 5748 5748 5748 5749 5749 5750 5751 5752 5753 5753 5753 5754
5738 5739 5739 5739 5739 5739 5739 5738 5738 5738 5738 5738 5738 5738 5739 5739 5740 5741 5741 5741 5742 5742 5743 5743 5744 5744 5744 5744 5744 5744 5744 5744 5744 5744 5745 5746 5746 5747 5748 5749 5749 5750 5750
5735 5735 5736 5736 5735 5735 5735 5735 5735 5735 5735 5735 5735 5735 5735 5736 5736 5737 5738 5738 5738 5738 5739 5739 5740 5740 5740 5740 5740 5740 5740 5740 5740 5740 5741 5742 5743 5744 5744 5745 5746 5746 5747
5733 5732 5732 5732 5732 5732 5732 5732 5732 5732 5732 5732 5732 5732 5732 5732 5732 5733 5734 5734 5734 5734 5735 5735 5735 5735 5735 5736 5736 5735 5735 5736 5736 5737 5738 5739 5739 5740 5741 5741 5742 5742 5743
5730 5729 5729 5729 5729 5729 5729 5728 5728 5728 5728 5728 5728 5728 5728 5728 5729 5729 5729 5730 5730 5730 5730 5731 5731 5731 5731 5731 5731 5731 5731 5731 5732 5732 5733 5734 5735 5736 5737 5737 5738 5738 5739
5726 5725 5725 5725 5725 5725 5725 5725 5725 5725 5725 5725 5724 5724 5724 5724 5724 5725 5725 5726 5726 5726 5726 5726 5726 5726 5726 5726 5726 5726 5726 5727 5727 5728 5729 5730 5731 5732 5733 5733 5734 5734 5735
5722 5722 5722 5722 5722 5722 5722 5722 5722 5722 5722 5721 5720 5720 5720 5720 5720 5720 5720 5721 5721 5721 5721 5721 5721 5721 5721 5721 5721 5721 5721 5721 5722 5723 5724 5725 5726 5727 5728 5729 5729 5730 5731
5717 5718 5718 5718 5718 5718 5719 5719 5719 5718 5718 5717 5717 5716 5716 5715 5715 5715 5715 5715 5716 5716 5716 5715 5715 5715 5715 5715 5715 5715 5715 5716 5717 5718 5719 5721 5722 5723 5724 5725 5725 5726 5726
5715 5715 5716 5715 5715 5715 5715 5715 5715 5714 5714 5714 5713 5712 5712 5711 5711 5710 5710 5710 5710 5710 5710 5710 5709 5709 5709 5709 5709 5709 5710 5711 5711 5712 5714 5716 5718 5719 5719 5720 5721 5721 5722
5713 5713 5714 5713 5712 5712 5712 5712 5711 5711 5710 5710 5709 5709 5708 5707 5706 5706 5705 5705 5705 5705 5704 5704 5704 5704 5704 5704 5704 5704 5705 5705 5706 5707 5709 5710 5712 5714 5715 5715 5716 5717 5718
5710 5711 5711 5711 5710 5709 5709 5708 5708 5707 5707 5706 5706 5705 5704 5703 5702 5701 5701 5700 5700 5700 5699 5699 5699 5698 5698 5699 5699 5699 5699 5700 5701 5702 5703 5705 5706 5708 5710 5710 5712 5712 5713
5708 5708 5709 5709 5708 5707 5706 5705 5704 5704 5703 5703 5702 5702 5701 5700 5698 5697 5696 5696 5696 5695 5695 5694 5694 5693 5693 5693 5693 5694 5694 5695 5695 5696 5698 5699 5701 5702 5704 5705 5707 5708 5709
5706 5706 5706 5707 5706 5705 5703 5702 5701 5700 5700 5699 5699 5698 5697 5696 5695 5693 5692 5692 5691 5691 5691 5690 5689 5689 5688 5688 5687 5688 5689 5689 5690 5691 5692 5693 5695 5696 5698 5700 5701 5703 5704
5704 5703 5704 5705 5703 5702 5700 5699 5698 5697 5696 5696 5695 5694 5693 5693 5691 5690 5689 5688 5687 5687 5686 5685 5684 5683 5682 5681 5681 5682 5683 5684 5685 5685 5687 5688 5689 5690 5692 5694 5696 5697 5699
5701 5700 5700 5701 5699 5698 5697 5696 5694 5693 5692 5691 5690 5690 5689 5688 5687 5686 5685 5684 5683 5683 5682 5681 5679 5678 5676 5676 5676 5676 5677 5678 5679 5680 5681 5682 5683 5684 5686 5688 5690 5692 5694
5699 5698 5697 5696 5696 5695 5693 5691 5689 5688 5687 5686 5685 5685 5684 5683 5683 5682 5681 5680 5679 5678 5677 5676 5674 5673 5672 5671 5672 5671 5671 5673 5674 5675 5676 5677 5678 5679 5680 5682 5684 5686 5688
5694 5693 5692 5691 5690 5690 5688 5685 5683 5681 5681 5681 5680 5680 5679 5679 5679 5678 5676 5675 5674 5673 5672 5671 5670 5668 5666 5666 5665 5664 5665 5667 5668 5669 5670 5671 5672 5673 5675 5677 5678 5680 5682
5690 5689 5688 5686 5685 5685 5683 5682 5680 5678 5676 5675 5675 5675 5675 5674 5674 5674 5672 5670 5670 5669 5667 5666 5665 5663 5662 5661 5659 5657 5655 5658 5661 5663 5664 5665 5666 5667 5669 5670 5672 5674 5676
5684 5683 5684 5681 5680 5679 5678 5677 5676 5673 5672 5670 5669 5669 5669 5669 5669 5669 5667 5666 5665 5664 5663 5662 5661 5660 5657 5656 5656 5654 5650 5648 5650 5654 5656 5658 5659 5660 5662 5664 5666 5668 5670
5680 5679 5677 5675 5674 5673 5672 5671 5670 5667 5664 5664 5663 5663 5664 5664 5664 5664 5662 5661 5660 5659 5658 5658 5657 5656 5654 5651 5651 5650 5650 5649 5646 5646 5649 5651 5653 5654 5655 5658 5660 5662 5664
5676 5674 5671 5670 5668 5666 5666 5665 5663 5661 5659 5658 5659 5658 5658 5659 5658 5658 5657 5657 5656 5655 5654 5653 5652 5651 5650 5648 5646 5645 5644 5642 5642 5641 5640 5643 5645 5647 5649 5651 5653 5655 5657
5671 5669 5666 5664 5661 5660 5659 5657 5656 5654 5653 5653 5652 5652 5652 5652 5652 5652 5652 5652 5651 5650 5649 5648 5648 5646 5645 5644 5643 5641 5640 5638 5636 5635 5634 5635 5637 5640 5643 5645 5647 5648 5650